星链-6139 (STARLINK-6139 )

导读

STARLINK-6139是美国SpaceX公司星链星座中的一颗卫星,于2023年6月23日发射升空,归属星链项目,该项目旨在构建全球卫星互联网星座系统,为全球偏远地区、海洋等网络覆盖薄弱区域提供高速宽带互联网接入服务,推进全球网络覆盖一体化建设。

基本信息
目录编号:
57109
目录名称:
STARLINK-6139
国际标识:
2023-090J
轨道中心:
EARTH
卫星名称:
星链-6139
卫星全名:
星链-6139 (STARLINK-6139 )
卫星状态:
在轨 (已飞行1169 天)
发射日期:
2023-06-23 UTC
国别 :
美国 (US)
星等 :
--
轨道信息
数据来源 国际轨道数据
星历时间: 2026-09-04T15:13:55+0800
8小时前
查看轨道信息
半长轴: 6861.19km
偏心率: 0.0002014
轨道倾角: 43.004°
近地点辐角 271.853°
升交点赤经 353.283°
平近点角 88.209°
近地点: 481.671km
远地点: 484.435km
周期: 94.267分钟
每日圈数: 15.27579
详细信息
固有亮度:
5
最大亮度:
2.4
卫星平台:
Starlink v1.5
覆盖范围:
全球
运营商:
太空探索技术公司
运营商所在国:
美国
制造商(研发单位):
太空探索技术公司
制造商所在国:
美国
使用方式:
暂无
卫星简介
星链(Starlink)计划是由太空探索技术公司(SpaceX)提出的一个巨型低轨卫星互联网星座项目,计划在2019年至2024年间在太空搭建由约1.2万颗卫星组成的“星链”网络,其中1584颗将部署在地球上空550千米处的近地轨道,并从2020年开始工作。该卫星仍在工作。
2D轨道图
3D轨道图
轨道高度分析图
轨道倾角分析图
轨道综合分析图
查看轨道综合分析图
交会数据列表
事件ID 空间交会对象 最接近时刻(TCA) 交会距离 交会风险概率(CRP) 交会风险指数(CRI) 操作
CDM_260829-101905-710906-328321
2026-08-29T
10:19:27+0000
0.871 km
远距离
1.632659E-5 中风险 0.59
CDM_260903-070405-710906-329722
OBJECT G (63297)
2026-09-03T
07:04:09+0000
1.116 km
极远距离
1.183538E-5 中风险 0.56
CDM_260904-104205-710905-870123
2026-09-04T
10:42:35+0000
2.037 km
极远距离
2.227283E-6 低风险 0.42
CDM_260829-141405-710906-328321
2026-08-29T
14:14:50+0000
2.316 km
极远距离
8.950135E-7 极低风险 0.34
CDM_260829-115305-710906-328321
2026-08-29T
11:53:36+0000
2.786 km
极远距离
6.73932E-7 极低风险 0.32